Dewpoint
68 72 72 73 74 73 72 72 72 72 73 73 74 74 74 74 74 74 74 74 75 75 74 73 74 73 72 72 73 73 72 73 73 73 73 73 72 71 72 72 71 70 73
69 71 72 72 73 73 73 72 72 72 73 74 74 74 74 74 73 74 74 74 74 74 73 73 73 73 73 74 71 71 72 72 72 72 73 72 72 71 71 71 71 72 72
69 71 71 72 73 73 73 72 72 73 73 74 74 74 74 74 73 73 73 73 74 74 73 73 73 73 74 72 70 70 71 71 72 72 72 70 70 72 70 71 72 73 73
68 69 71 72 72 73 73 72 72 73 73 73 74 74 74 73 73 73 73 73 74 75 74 73 72 73 72 71 70 70 70 70 71 70 71 70 68 71 70 72 72 73 72
67 69 70 71 72 72 73 73 72 72 72 72 73 74 74 73 73 73 73 73 74 75 74 72 73 73 70 69 69 69 69 69 69 70 69 70 69 70 71 72 72 72 72
70 70 70 70 71 71 72 72 73 73 72 72 72 73 74 74 73 73 73 73 74 74 75 74 73 71 69 69 69 69 69 68 69 67 68 69 68 72 71 71 71 71 71
70 70 71 70 71 71 71 71 72 72 72 72 72 73 73 73 73 72 72 72 73 74 74 74 73 72 69 69 69 68 68 68 67 66 67 69 69 72 71 71 70 70 71
71 70 70 71 71 71 70 70 70 70 71 72 72 72 73 73 72 72 72 72 72 73 73 73 72 72 71 69 69 68 68 67 66 65 65 67 70 71 72 71 70 70 70
55 61 67 70 71 71 70 70 70 70 70 70 71 72 72 72 72 72 72 72 72 72 72 72 72 72 72 71 69 68 67 67 66 65 63 67 71 71 72 71 71 70 70
56 57 57 59 62 65 70 69 69 70 70 70 70 70 70 71 72 72 71 71 71 71 71 72 72 71 71 70 70 68 67 67 66 65 64 64 70 71 72 71 71 70 70
53 52 53 55 56 59 63 69 70 70 70 70 70 69 69 70 71 72 71 71 71 70 70 70 71 70 70 70 69 69 68 67 66 65 63 65 70 72 72 71 70 70 70
49 50 50 53 55 57 60 62 64 67 70 70 70 69 69 69 69 69 70 69 70 69 69 69 70 69 69 71 70 69 69 68 66 64 63 66 70 72 72 71 70 70 70
48 48 49 50 52 55 57 59 60 64 65 67 68 70 70 70 69 70 70 69 69 69 70 69 70 70 70 70 70 70 69 68 66 64 64 66 70 72 72 72 71 70 70
47 47 48 49 50 52 56 57 58 60 62 63 62 63 66 68 68 69 69 68 68 69 68 69 69 69 69 69 69 68 67 67 66 65 64 65 68 71 72 72 72 71 70
45 47 47 48 48 51 52 54 56 56 59 60 59 60 60 61 62 63 65 67 67 67 67 67 67 68 68 68 68 67 65 67 67 67 67 64 67 69 71 72 72 72 71
44 45 45 46 46 49 50 53 52 54 56 56 56 57 58 58 59 60 61 63 65 65 64 64 65 65 65 66 66 67 67 68 68 68 68 66 64 67 69 70 71 71 72
44 44 44 45 45 46 50 51 52 51 53 52 53 55 56 56 56 57 59 60 63 63 62 63 63 63 64 65 66 67 66 66 67 66 64 65 66 64 66 68 69 70 70
43 43 44 44 44 44 44 50 49 51 51 51 50 52 52 52 51 53 53 53 53 54 57 57 58 59 61 62 63 64 65 65 65 65 64 64 67 67 65 64 66 68 69
42 42 43 44 44 44 44 45 48 49 47 47 49 49 50 49 49 50 49 50 50 51 52 52 52 53 54 56 58 60 63 63 64 64 62 63 64 65 66 65 63 63 65
41 41 42 43 43 43 44 43 44 47 47 46 45 46 47 47 47 46 47 48 47 48 49 49 49 49 51 52 53 55 59 62 62 61 60 62 62 64 63 64 63 63 62
42 41 41 41 41 42 41 42 43 42 45 44 45 45 45 46 45 44 44 44 45 45 46 46 46 46 48 48 51 50 53 56 60 62 63 63 63 64 63 64 62 61 61
39 40 40 39 40 40 40 41 42 43 43 44 44 44 45 44 43 42 42 43 42 43 44 44 44 43 44 46 47 48 49 51 52 55 59 62 63 62 63 63 62 61 61
39 39 39 39 39 40 39 39 39 40 39 39 39 40 41 42 41 40 41 40 41 42 42 42 43 42 42 43 45 47 47 46 47 50 51 55 58 60 61 61 61 61 60
39 39 39 38 38 38 39 38 38 37 36 38 37 38 38 39 38 38 38 39 39 40 40 40 40 42 42 41 43 45 46 47 47 45 49 50 52 54 57 59 61 60 60
38 38 37 38 37 37 37 36 36 36 36 37 36 35 35 36 36 36 37 38 38 38 39 38 39 39 41 43 43 44 45 46 46 47 45 46 47 50 51 53 53 59 60
37 35 36 36 36 36 35 35 34 34 34 34 34 34 34 34 35 35 35 37 37 37 37 38 38 39 40 41 41 42 43 43 43 45 43 42 44 45 48 49 53 53 59
Lifted_Index
-4 -5 -5 -6 -6 -6 -6 -6 -6 -6 -6 -5 -5 -5 -5 -5 -5 -5 -5 -6 -6 -6 -6 -5 -5 -5 -5 -4 -4 -4 -4 -4 -4 -5 -5 -5 -4 -4 -4 -4 -4 -5 -5
-4 -5 -5 -6 -6 -6 -6 -6 -6 -6 -6 -6 -6 -6 -6 -5 -5 -5 -6 -6 -6 -6 -5 -5 -5 -5 -5 -5 -4 -3 -3 -4 -4 -4 -5 -5 -4 -4 -4 -4 -4 -5 -5
-5 -5 -5 -5 -6 -7 -7 -6 -6 -6 -6 -6 -6 -6 -6 -6 -6 -5 -6 -6 -6 -6 -6 -5 -5 -5 -5 -4 -3 -3 -3 -3 -4 -4 -4 -4 -4 -4 -4 -4 -4 -5 -5
-5 -5 -5 -5 -6 -7 -7 -7 -6 -6 -6 -6 -6 -6 -6 -6 -6 -6 -6 -6 -6 -6 -6 -6 -5 -5 -4 -3 -2 -2 -2 -3 -3 -4 -4 -4 -4 -4 -4 -4 -4 -5 -5
-6 -6 -5 -5 -6 -7 -7 -7 -7 -6 -6 -6 -6 -6 -6 -6 -6 -6 -6 -6 -6 -7 -7 -6 -6 -5 -4 -3 -2 -2 -2 -2 -3 -3 -3 -3 -4 -4 -4 -4 -4 -4 -4
-7 -6 -6 -6 -6 -6 -6 -7 -6 -6 -6 -6 -6 -6 -7 -7 -6 -6 -6 -6 -6 -7 -7 -6 -6 -5 -3 -2 -2 -2 -2 -2 -2 -2 -2 -3 -3 -4 -4 -3 -3 -4 -4
-7 -7 -6 -6 -6 -6 -6 -6 -6 -6 -6 -6 -6 -6 -7 -7 -6 -6 -6 -6 -6 -7 -7 -7 -6 -5 -4 -3 -2 -2 -1 -1 -1 -1 -2 -2 -3 -4 -4 -3 -3 -3 -3
-6 -6 -6 -6 -6 -6 -6 -5 -5 -5 -5 -6 -6 -6 -6 -6 -6 -6 -6 -6 -6 -7 -7 -7 -6 -6 -5 -4 -3 -2 -2 -1 -0 -0 -1 -2 -3 -4 -4 -3 -3 -3 -3
-2 -3 -4 -5 -6 -6 -6 -6 -5 -5 -5 -5 -5 -6 -6 -6 -6 -6 -6 -6 -6 -6 -7 -7 -7 -6 -6 -5 -4 -3 -2 -1 -0 -0 -1 -2 -3 -4 -4 -3 -3 -3 -3
2 1 -0 -2 -3 -5 -6 -6 -6 -6 -5 -5 -5 -5 -5 -6 -6 -6 -6 -6 -6 -6 -6 -6 -6 -6 -6 -6 -5 -4 -3 -2 -1 -0 -1 -2 -3 -4 -4 -3 -3 -3 -3
3 3 2 1 -0 -2 -4 -6 -6 -6 -6 -5 -4 -4 -5 -5 -5 -6 -6 -6 -6 -6 -6 -6 -6 -6 -6 -6 -6 -5 -4 -3 -2 -1 -1 -2 -4 -5 -5 -4 -3 -3 -3
4 4 4 3 3 1 -1 -3 -5 -6 -6 -6 -5 -5 -4 -5 -5 -5 -6 -6 -6 -6 -6 -6 -6 -6 -6 -6 -6 -5 -5 -4 -3 -2 -1 -2 -4 -5 -5 -5 -4 -4 -3
5 5 5 6 6 5 2 -0 -3 -5 -5 -5 -5 -5 -5 -5 -5 -5 -6 -6 -6 -6 -5 -5 -5 -5 -5 -5 -5 -5 -5 -4 -3 -2 -2 -3 -5 -6 -6 -6 -5 -4 -4
7 7 8 8 7 6 5 3 0 -2 -4 -4 -5 -5 -5 -5 -5 -5 -5 -5 -5 -5 -5 -5 -5 -5 -5 -5 -5 -4 -4 -4 -3 -3 -3 -3 -5 -6 -6 -6 -6 -5 -5
9 9 9 9 8 7 6 5 3 0 -2 -3 -3 -4 -4 -4 -4 -4 -4 -4 -4 -4 -4 -4 -4 -4 -4 -4 -4 -4 -4 -4 -4 -3 -3 -3 -4 -5 -6 -6 -6 -6 -5
10 10 10 9 8 7 7 6 4 3 1 -0 -1 -2 -2 -3 -3 -3 -3 -3 -3 -3 -3 -3 -3 -3 -3 -3 -3 -3 -3 -3 -3 -3 -3 -2 -3 -4 -5 -5 -6 -6 -5
11 10 10 9 9 8 7 6 5 4 3 2 1 0 -0 -1 -2 -2 -2 -2 -1 -1 -1 -1 -2 -2 -2 -2 -2 -3 -3 -3 -3 -2 -1 -0 -1 -3 -4 -4 -5 -5 -5
11 11 10 9 9 9 8 7 6 6 5 4 3 2 2 1 0 -0 -1 -1 -0 -0 0 0 0 -0 -0 -0 -0 -1 -1 -2 -2 -1 -0 0 -1 -2 -3 -3 -4 -4 -4
11 11 10 10 10 10 9 9 8 7 7 6 5 5 4 4 3 2 1 1 1 1 1 1 1 1 1 2 2 2 1 -0 -1 -1 -0 0 -0 -1 -1 -2 -2 -2 -2
11 11 11 10 10 10 10 10 9 9 9 9 8 8 7 7 6 5 4 4 3 2 2 2 2 3 3 4 5 5 4 2 0 -0 -1 -0 -0 -0 -1 -1 -0 1 1
12 11 11 11 10 10 10 10 10 10 10 10 10 10 10 10 9 9 8 8 7 6 6 6 5 5 6 7 8 7 6 4 2 0 -1 -1 -1 -1 -0 -1 -0 1 2
12 12 11 11 11 11 10 10 10 10 11 11 11 11 11 11 11 10 10 10 10 9 9 9 9 8 9 9 9 8 7 5 4 2 1 0 -0 -0 -0 -1 -1 -0 1
12 12 12 12 12 12 12 11 11 11 11 11 11 11 11 11 10 10 10 9 9 9 9 10 10 10 10 10 10 9 7 6 6 5 4 3 2 1 0 -1 -1 -1 -1
12 13 13 14 14 14 13 13 12 12 12 11 11 11 11 10 10 9 9 9 8 8 8 8 9 9 9 9 9 9 8 8 7 6 5 5 4 3 1 -0 -1 -1 -1
12 13 14 15 15 15 14 14 14 13 12 12 11 11 11 10 10 10 10 9 9 8 8 8 8 7 7 8 8 8 8 8 7 6 6 6 6 5 3 1 -0 -1 -1
13 14 15 15 15 15 15 14 14 14 13 12 11 11 10 10 10 10 10 10 9 9 8 8 8 7 7 7 7 8 8 7 7 7 6 7 7 6 5 3 1 -1 -1